Find Starlink 3324

NORAD ID: 50814 Int'l Des: 2022-001 Owner: SPXS Country: US Constellation: starlink operational
LEOCIRCULAR

当前视图

正在加载3D地球...

About Starlink 3324

Starlink 3324 (NORAD 50814) is a starlink constellation satellite (v1.5) launched Jan 6, 2022 by SPXS of US. It operates in LEO, CIRCULAR orbit with a mass of 297.00 kg.

关于 Starlink 3324

正在加载描述...

即将过境

Passes for default location (London). Set your location on the main map for personalized predictions.

高度历史

Loading altitude history...

两行轨道根数

1 50814U 22001M 26166.47677375 -.00001241 00000-0 -59909-4 0 9996
2 50814 53.1625 90.0537 0001516 96.9353 263.1811 15.08818029245177
Epoch: Jun 15, 2026 • Age: 11 hours

当前状态

高度 542.2 km
速度 7.60 km/s
星下点 37.33°N, 123.48°W
发射日期 Jan 6, 2022
运行时间 4.4 years
类型 internet

技术详情

分类 Payload
质量 297.00 kg
干质量 275.00 kg
总质量 297.00 kg
长度 0.20 m
直径 2.80 m
跨度 9.00 m
形状 Box + pan
制造商 SPXS
平台类型 Starlink
阶段状态 In Orbit
所有者/国家 SPXS/US

Most Searched